Date String (YYYY-MM-DD hh:mm:ss) UTC,Instrument flags,absolute air pressure of the measurement (hPa),sample flow rate (lpm),inlet stack bypass flow (lpm),air temperature of the measurement (°C),ambient temperature measured by the external sensor (°C),aerosol sample conditioner tube jacket temperature (°C),OPC LED temperature (°C),internal box temperature (°C),relative humidity of the measurement (%),span deviation,mass concentration of particles derived from Lorenz-Mie calculation of OPC scattering (μg/m³),mass concentration of particles derived from Lorenz-Mie calculation of OPC scattering (μg/m³),mass concentration of particles derived from Lorenz-Mie calculation of OPC scattering (μg/m³)
DateTimeUTC,F1_M11,P_M11,Q1_M11,Q2_M11,T1_M11,T2_M11,T3_M11,T4_M11,T5_M11,U1_M11,ZSPAN_M11,X0_M11,X2_M11,X1_M11
2024-01-06 20:00:00,SystemResetWarning,0820.3,4.99,000.00,020.3,019.2,000.0,028.5,021.5,6.3,0000.0,0007.37,0000.99,0000.56
2024-01-06 20:01:00,SystemResetWarning,0820.3,4.99,000.00,020.3,019.2,000.0,028.5,021.5,6.3,0000.0,0007.38,0000.90,0000.56
2024-01-06 20:02:00,SystemResetWarning,0820.2,4.99,000.00,020.3,019.3,000.0,028.5,021.5,6.4,0000.0,0007.60,0000.87,0000.58
2024-01-06 20:03:00,SystemResetWarning,0820.2,4.99,000.00,020.3,019.3,000.0,028.5,021.5,6.3,0000.0,0005.39,0000.83,0000.58
2024-01-06 20:04:00,SystemResetWarning,0820.1,5.00,000.00,020.3,019.3,000.0,028.5,021.5,6.3,0000.0,0004.67,0000.84,0000.59
2024-01-06 20:05:00,SystemResetWarning,0820.1,5.00,000.00,020.3,019.3,000.0,028.5,021.5,6.4,0000.0,0003.68,0000.84,0000.59
2024-01-06 20:06:00,SystemResetWarning,0820.1,5.01,000.00,020.3,019.3,000.0,028.5,021.5,6.3,0000.0,0002.67,0000.83,0000.60
2024-01-06 20:07:00,SystemResetWarning,0820.1,5.01,000.00,020.3,019.3,000.0,028.5,021.5,6.4,0000.0,0003.04,0000.83,0000.60
2024-01-06 20:08:00,SystemResetWarning,0820.0,5.00,000.00,020.3,019.3,000.0,028.5,021.5,6.4,0000.0,0002.91,0000.85,0000.61
2024-01-06 20:09:00,SystemResetWarning,0820.0,5.00,000.00,020.3,019.3,000.0,028.5,021.5,6.3,0000.0,0002.91,0000.87,0000.62
2024-01-06 20:10:00,SystemResetWarning,0820.0,5.00,000.00,020.3,019.3,000.0,028.5,021.5,6.3,0000.0,0002.89,0000.88,0000.63
2024-01-06 20:11:00,SystemResetWarning,0820.1,4.99,000.00,020.3,019.3,000.0,028.5,021.5,6.3,0000.0,0002.87,0000.87,0000.64
2024-01-06 20:12:00,SystemResetWarning,0820.1,5.00,000.00,020.3,019.3,000.0,028.5,021.5,6.3,0000.0,0002.63,0000.87,0000.64
2024-01-06 20:13:00,SystemResetWarning,0820.1,5.00,000.00,020.3,019.3,000.0,028.5,021.6,6.3,0000.0,0001.90,0000.86,0000.64
2024-01-06 20:14:00,SystemResetWarning,0820.1,5.01,000.00,020.3,019.3,000.0,028.5,021.6,6.4,0000.0,0001.99,0000.89,0000.64
2024-01-06 20:15:00,SystemResetWarning,0820.1,5.01,000.00,020.3,019.3,000.0,028.5,021.6,6.3,0000.0,0002.14,0000.94,0000.65
2024-01-06 20:16:00,SystemResetWarning,0820.0,4.99,000.00,020.3,019.3,000.0,028.5,021.6,6.3,0000.0,0002.18,0000.93,0000.67
2024-01-06 20:17:00,SystemResetWarning,0820.0,4.99,000.00,020.3,019.3,000.0,028.5,021.6,6.3,0000.0,0002.17,0000.93,0000.68
2024-01-06 20:18:00,SystemResetWarning,0820.0,5.00,000.00,020.3,019.3,000.0,028.5,021.6,6.4,0000.0,0001.78,0000.97,0000.69
2024-01-06 20:19:00,SystemResetWarning,0820.0,5.00,000.00,020.3,019.3,000.0,028.6,021.5,6.3,0000.0,0001.58,0000.95,0000.69
2024-01-06 20:20:00,SystemResetWarning,0820.1,5.01,000.00,020.3,019.3,000.0,028.6,021.6,6.3,0000.0,0001.57,0000.94,0000.70
2024-01-06 20:21:00,SystemResetWarning,0819.9,5.00,000.00,020.3,019.3,000.0,028.6,021.5,6.3,0000.0,0001.73,0000.96,0000.71
2024-01-06 20:22:00,SystemResetWarning,0820.2,5.00,000.00,020.3,019.3,000.0,028.6,021.5,6.3,0000.0,0001.89,0000.98,0000.71
2024-01-06 20:23:00,SystemResetWarning,0819.9,5.00,000.00,020.3,019.3,000.0,028.5,021.5,6.3,0000.0,0002.54,0000.98,0000.71
2024-01-06 20:24:00,SystemResetWarning,0819.8,5.00,000.00,020.3,019.3,000.0,028.5,021.5,6.3,0000.0,0002.73,0000.97,0000.72
2024-01-06 20:25:00,SystemResetWarning,0819.9,5.00,000.00,020.3,019.3,000.0,028.5,021.5,6.3,0000.0,0002.88,0000.97,0000.74
2024-01-06 20:26:00,SystemResetWarning,0819.9,5.00,000.00,020.3,019.3,000.0,028.6,021.5,6.3,0000.0,0002.85,0000.96,0000.74
2024-01-06 20:27:00,SystemResetWarning,0820.0,4.99,000.00,020.3,019.2,000.0,028.6,021.5,6.3,0000.0,0002.81,0000.97,0000.74
2024-01-06 20:28:00,SystemResetWarning,0819.9,5.00,000.00,020.3,019.2,000.0,028.5,021.5,6.2,0000.0,0002.78,0000.98,0000.75
2024-01-06 20:29:00,SystemResetWarning,0820.0,5.01,000.00,020.3,019.2,000.0,028.5,021.5,6.2,0000.0,0002.79,0000.97,0000.76
2024-01-06 20:30:00,SystemResetWarning,0819.8,5.00,000.00,020.3,019.2,000.0,028.5,021.5,6.2,0000.0,0002.79,0000.96,0000.77
2024-01-06 20:31:00,SystemResetWarning,0820.0,4.99,000.00,020.3,019.2,000.0,028.5,021.5,6.2,0000.0,0002.84,0001.00,0000.77
2024-01-06 20:32:00,SystemResetWarning,0819.8,5.00,000.00,020.3,019.2,000.0,028.5,021.5,6.2,0000.0,0002.87,0001.03,0000.79
2024-01-06 20:33:00,SystemResetWarning,0819.9,5.00,000.00,020.3,019.2,000.0,028.5,021.5,6.2,0000.0,0002.79,0001.01,0000.80
2024-01-06 20:34:00,SystemResetWarning,0819.8,4.99,000.00,020.3,019.2,000.0,028.5,021.5,6.2,0000.0,0002.31,0001.01,0000.81
2024-01-06 20:35:00,SystemResetWarning,0820.0,5.00,000.00,020.3,019.2,000.0,028.5,021.5,6.2,0000.0,0002.05,0001.08,0000.82
2024-01-06 20:36:00,SystemResetWarning,0819.9,5.00,000.00,020.3,019.2,000.0,028.5,021.5,6.2,0000.0,0001.94,0001.12,0000.83
2024-01-06 20:37:00,SystemResetWarning,0820.0,4.99,000.00,020.3,019.2,000.0,028.5,021.5,6.2,0000.0,0001.89,0001.12,0000.84
2024-01-06 20:38:00,SystemResetWarning,0819.9,5.01,000.00,020.3,019.2,000.0,028.5,021.5,6.2,0000.0,0001.82,0001.11,0000.84
2024-01-06 20:39:00,SystemResetWarning,0819.8,5.01,000.00,020.3,019.1,000.0,028.5,021.4,6.3,0000.0,0001.82,0001.10,0000.83
2024-01-06 20:40:00,SystemResetWarning,0820.0,5.01,000.00,020.2,019.1,000.0,028.5,021.5,6.3,0000.0,0001.82,0001.10,0000.84
2024-01-06 20:41:00,SystemResetWarning,0819.9,5.00,000.00,020.2,019.1,000.0,028.5,021.4,6.3,0000.0,0001.81,0001.10,0000.84
2024-01-06 20:42:00,SystemResetWarning,0819.8,5.00,000.00,020.2,019.2,000.0,028.5,021.5,6.3,0000.0,0001.83,0001.09,0000.85
2024-01-06 20:43:00,SystemResetWarning,0819.9,5.00,000.00,020.2,019.2,000.0,028.5,021.5,6.2,0000.0,0001.79,0001.07,0000.84
2024-01-06 20:44:00,SystemResetWarning,0819.9,5.00,000.00,020.2,019.2,000.0,028.5,021.5,6.3,0000.0,0001.94,0001.10,0000.85
2024-01-06 20:45:00,SystemResetWarning,0819.9,4.99,000.00,020.2,019.2,000.0,028.5,021.4,6.2,0000.0,0001.99,0001.11,0000.86
2024-01-06 20:46:00,SystemResetWarning,0819.9,5.00,000.00,020.2,019.1,000.0,028.5,021.4,6.2,0000.0,0001.94,0001.09,0000.85
2024-01-06 20:47:00,SystemResetWarning,0819.7,5.02,000.00,020.2,019.1,000.0,028.5,021.4,6.2,0000.0,0001.84,0001.05,0000.84
2024-01-06 20:48:00,SystemResetWarning,0819.8,4.99,000.00,020.2,019.1,000.0,028.5,021.4,6.3,0000.0,0001.85,0001.05,0000.85
2024-01-06 20:49:00,SystemResetWarning,0819.8,4.99,000.00,020.2,019.1,000.0,028.5,021.4,6.4,0000.0,0002.79,0001.11,0000.85
2024-01-06 20:50:00,SystemResetWarning,0819.7,4.99,000.00,020.2,019.1,000.0,028.5,021.4,6.4,0000.0,0002.98,0001.13,0000.86
2024-01-06 20:51:00,SystemResetWarning,0819.7,5.00,000.00,020.2,019.1,000.0,028.5,021.4,6.4,0000.0,0003.02,0001.14,0000.85
2024-01-06 20:52:00,SystemResetWarning,0820.0,5.00,000.00,020.2,019.1,000.0,028.5,021.4,6.3,0000.0,0003.31,0001.17,0000.85
2024-01-06 20:53:00,SystemResetWarning,0819.8,5.00,000.00,020.2,019.0,000.0,028.5,021.4,6.4,0000.0,0003.46,0001.18,0000.84
2024-01-06 20:54:00,SystemResetWarning,0819.8,5.00,000.00,020.2,019.0,000.0,028.5,021.4,6.4,0000.0,0003.47,0001.20,0000.84
2024-01-06 20:55:00,SystemResetWarning,0819.8,5.01,000.00,020.2,019.0,000.0,028.4,021.3,6.4,0000.0,0003.27,0001.20,0000.85
2024-01-06 20:56:00,SystemResetWarning,0819.8,5.01,000.00,020.2,019.0,000.0,028.4,021.4,6.4,0000.0,0003.14,0001.18,0000.85
2024-01-06 20:57:00,SystemResetWarning,0819.8,5.01,000.00,020.2,019.0,000.0,028.4,021.4,6.4,0000.0,0003.13,0001.18,0000.86
2024-01-06 20:58:00,SystemResetWarning,0819.8,5.00,000.00,020.2,019.0,000.0,028.4,021.4,6.4,0000.0,0003.11,0001.18,0000.87
2024-01-06 20:59:00,SystemResetWarning,0819.7,5.00,000.00,020.2,019.0,000.0,028.4,021.3,6.4,0000.0,0003.10,0001.18,0000.87
